Showing default

DIWATA 2B, 43678

Orbit data source: Space-Track

DIWATA 2B, 43678 is a Filipino payload satellite in SSO that was launched on Mon, 29 Oct 2018 UTC via an H-IIA 202 launch vehicle from the Tanegashima Space Center (TNSTA). Payload-class satellites include a variety of spacecraft equipped with specific instruments for various scientific and technological missions. These include communications satellites like Starlink; space stations such as the ISS; scientific satellites like the Hubble; Earth observation satellites from companies like Planet Labs, Umbra, and HawkEye 360; GPS; miniature CubeSats for education and research; and military/defense satellites.

Loading next visibility...
Identifier
43678, 2018-084H
Orbit
SSO
Country
Flag of RPRP
Related business
Manufacturer
UPD/HOKK
Mission
Operational Civil Imaging
Bus & Motor
DIWATA, Unknown motor
Mass
56 kg wet, 56 kg dry
Launch date (UTC)
2018-10-29 (7 years ago)
Launch vehicle
H-IIA 202
Launch site
Tanegashima Space Center (TNSTA)
Object type
Payload
Rocket body
Debris
Shape & HBR
Box + 2 Pan, Unknown HBR
Radar Cross Section
0.514 m², Medium (>0.1 m² and < 1m²)

Expand to show TLE details & history
Last TLE update: 17 hours ago

TLE from 17 hours ago
0 DIWATA 2B
1 43678U 18084H   25261.28246221  .00001620  00000-0  13978-3 0  9992
2 43678  98.1078  81.3183 0008290 317.4459  42.6120 14.98767208375461
Epoch: 2025-09-18T06:46Z
TLE epoch observation values (Epoch: 2025-09-18T06:46:44.734Z)
Latitude
0.00002°
Longitude
-17.81439°
Altitude
569.507 km
Speed
7.579 km/s
True Right ascension
05h 25m 16s
True Declination
0° 00' 00"
Sunlit
Object was in daylight at epoch
Visualization orbit readout
Latitude
Unknown
Longitude
Unknown
Altitude
Unknown
Speed
Unknown
Apparent Right ascension
Unknown
Apparent Declination
Unknown
Sunlit
N/A
Visualization observer readout
Local Sidereal Time
16:36:42
Azimuth
Unknown
Elevation
Unknown
Doppler factor
Unknown
Orbital elements
Apogee altitude
573.488 km
Perigee altitude
561.971 km
Semi-major axis
6,945.867 km
Eccentricity
0.00083
Inclination
98.1078°
RAAN
81.3183°
Arg. of periapsis
317.4459°
True anomaly
42.67636°
Mean anomaly
42.612°
Eccentric anomaly
42.64418°
Mean motion
3.74933 °/min
Orbital period
96.02 mins
BSTAR
0.00013978
Loading maneuver chart data...
Computing Atmospheric mass density...

Documentation

Showing up to 5 results
|